{"data":{"norad_id":63948,"epoch":"2026-09-20T22:25:40.869120Z","epoch_age_seconds":109545,"freshness":"FRESH","line1":"1 63948U 25098Y   26263.93450080  .00013002  00000+0  45583-3 0  9995","line2":"2 63948  70.0009 139.9673 0003436 271.0476  89.0305 15.29587055 75856","mean_motion":15.29587055,"eccentricity":0.0003436,"inclination_deg":70.0009,"raan_deg":139.9673,"arg_perigee_deg":271.0476,"mean_anomaly_deg":89.0305,"bstar":0.00045583,"rev_number":7585,"period_min":94.143056146615,"perigee_km":474.69038301447,"apogee_km":479.40126465101,"semimajor_km":6855.1828238327,"source":"CELESTRAK","updated_at":"2026-09-21T09:00:35.172578Z"}}